Tracking 28799 objects as of 18-Apr-2024
HD Live streaming from Space Station
objects crossing your sky now

MSG 1 DEB (COOLER COVER)

Track MSG 1 DEB (COOLER COVER) now!


NORAD ID: 39998
Int'l Code: 2002-040E
Perigee: 35,510.6 km
Apogee: 35,568.0 km
Inclination: 11.7 °
Period: 1,423.1 minutes
Semi major axis: 41910 km
RCS: 0.003 m2 (small)
Launch date: August 28, 2002
Source: European Organisation for the Exploitation of Meteorological Satellites (EUME)
Launch site: FRENCH GUIANA (FRGUI)

Note: This is SATELLITE DEBRIS
Your satellite tracking list
Your tracking list is empty




NASA's NSSDC Master Catalog

Two Line Element Set (TLE):
1 39998U 02040E   24108.45342582  .00000086  00000-0  00000-0 0  9996
2 39998  11.7340  20.1248 0006845  57.7302 114.8280  1.01186377  9838
Source of the keplerian elements: AFSPC